#timestamp,LO_Frequency,Hit,StdDev 
1593928815.6,286047000.0,N
1593928835.4,286047002.3,N
1593928855.3,286047002.8,N
1593928875.1,286046999.8,N
1593928876.0,286046999.8,N
1593928895.8,286047002.3,N
1593928915.7,286047000.9,N
1593928935.5,286046999.9,N
1593928955.3,286047000.5,N
1593928975.2,286046999.7,N
1593928995.0,286047000.1,N
1593928995.9,286047000.1,N
1593929015.8,286047000.7,N
1593929035.6,286047000.3,N
1593929055.4,286047000.2,N
1593929075.3,286046998.5,N
1593929095.1,286047000.5,N
1593929115.9,286047000.4,N
1593929135.7,286047000.5,N
1593929155.5,286047000.9,N
1593929175.4,286047000.5,N
1593929195.2,286046998.8,N
1593929215.1,286046999.2,N
1593929216.0,286046999.2,N
1593929235.8,286047000.4,N
1593929255.6,286046999.9,N
1593929275.5,286047001.1,N
1593929295.3,286047001.2,N
1593929315.1,286047000.8,N
1593929335.9,286047000.0,N
1593929355.7,286047000.9,N
1593929375.6,286047000.5,N
1593929395.4,286046999.9,N
1593929415.2,286047002.7,Y
1593929435.1,286046999.9,P
1593929436.0,286046999.9,N
1593929455.8,286047001.0,P
1593929475.7,286047000.3,N
1593929495.5,286047000.3,N
1593929515.3,286046999.7,N
1593929535.2,286047000.4,N
1593929555.0,286047002.4,Y
1593929555.9,286047002.4,P
1593929575.8,286046999.7,N
1593929595.6,286046999.7,N
1593929615.4,286047001.0,N
1593929635.3,286047000.0,N
1593929655.1,286047002.7,N
1593929675.8,286047000.2,N
1593929695.7,286047001.0,N
1593929715.5,286047000.9,N
1593929735.4,286047002.8,N
1593929755.2,286047000.2,N
1593929775.0,286047000.2,N
1593929806.0,286047002.8,E
1593929815.9,286046998.1,N
1593929835.7,286046996.8,P
1593929855.6,286046999.1,N
1593929875.4,286046996.7,Y
1593929895.2,286046998.2,P
1593929915.1,286047001.1,P
1593929916.0,286047001.1,N
1593929935.8,286047001.2,N
1593929955.7,286046999.9,N
1593929975.5,286047000.7,N
1593929995.3,286046998.3,N
1593930015.2,286047000.8,N
1593930035.0,286046998.7,N
1593930035.9,286046998.7,N
1593930055.8,286046998.6,N
1593930075.6,286046998.9,N
1593930095.4,286046996.9,N
1593930115.3,286046999.2,N
1593930135.1,286046996.6,N
1593930155.9,286046999.1,N
1593930175.7,286046999.6,N
1593930195.5,286046999.2,N
1593930215.4,286046999.6,N
1593930235.2,286046997.1,N
1593930255.0,286046997.0,N
1593930255.9,286046997.0,N
1593930275.8,286046997.0,N
1593930295.6,286046999.4,N
1593930315.5,286046996.5,N
1593930335.3,286046999.6,N
1593930355.1,286046996.6,N
1593930375.9,286046997.0,N
1593930395.7,286046996.5,N
1593930415.6,286046998.8,N
1593930435.4,286046998.6,N
1593930455.2,286046999.3,N
1593930475.1,286046999.5,N
1593930476.0,286046999.5,N
1593930495.8,286046999.3,N
1593930515.7,286046998.4,N
1593930535.5,286046999.4,N
1593930555.3,286046996.5,N
1593930575.2,286046998.7,N
1593930595.0,286046998.8,N
1593930595.9,286046998.8,N
1593930615.8,286046998.5,N
1593930635.6,286046998.7,N
1593930655.4,286047001.2,N
1593930675.3,286047000.8,N
1593930695.1,286047000.7,N
1593930715.8,286046998.6,N
1593930735.7,286046999.4,N
1593930755.5,286046998.9,N
1593930775.4,286046999.3,N
1593930795.2,286046999.0,N
1593930815.0,286046998.4,N
1593930815.9,286046998.4,N
1593930835.8,286046998.9,N
1593930855.6,286046998.7,N
1593930875.5,286047001.2,N
1593930895.3,286047000.4,N
1593930915.1,286046998.4,N
1593930935.9,286047001.1,N
1593930955.7,286046998.4,N
1593930975.5,286046998.2,N
1593930995.4,286047001.2,N
1593931015.2,286046998.2,N
1593931035.1,286047001.1,N
1593931036.0,286047001.1,N
1593931055.8,286047000.5,N
1593931075.6,286047001.1,N
1593931095.5,286046998.5,N
1593931115.3,286046999.2,N
1593931135.2,286046998.5,N
1593931155.9,286046999.6,N
1593931175.7,286047000.7,N
1593931195.6,286046998.2,N
1593931215.4,286046998.4,N
1593931235.3,286047001.2,N
1593931255.1,286046998.7,N
1593931256.0,286046998.7,N
1593931275.8,286047001.2,N
1593931295.7,286047000.4,N
1593931315.5,286047001.1,N
1593931335.4,286046998.3,N
1593931355.2,286047001.1,N
1593931375.0,286047000.4,N
1593931375.9,286047000.4,N
1593931395.8,286046998.9,N
1593931415.6,286046997.2,N
1593931435.4,286046999.3,N
1593931455.3,286046998.3,N
1593931475.1,286046998.4,N
1593931495.9,286047000.1,N
1593931515.7,286047004.1,Y
1593931535.5,286047004.2,P
1593931555.4,286047002.3,N
1593931575.2,286047001.0,N
1593931595.1,286047000.8,N
1593931596.0,286047000.8,N
1593931615.8,286046999.4,N
1593931635.6,286047002.0,N
1593931655.5,286046999.7,N
1593931675.3,286047000.8,N
1593931695.2,286047001.2,N
1593931715.9,286046999.6,N
1593931735.7,286047000.6,N
1593931755.6,286047000.6,N
1593931775.4,286046999.6,N
1593931795.3,286046999.1,N
1593931815.1,286046997.6,N
1593931816.0,286046997.6,N
1593931835.8,286046995.2,Y
1593931855.7,286046993.9,P
1593931875.5,286046993.3,N
1593931895.3,286046995.5,N
1593931915.2,286046997.6,N
1593931935.0,286046993.7,N
1593931935.9,286046993.7,N
1593931955.8,286046995.0,N
1593931975.6,286046998.8,N
1593931995.4,286046998.0,N
1593932015.3,286046996.1,N
1593932035.1,286046996.2,N
1593932055.9,286046993.8,N
1593932075.7,286046996.2,N
1593932095.5,286046994.6,N
1593932115.4,286046994.1,N
1593932135.2,286046995.1,N
1593932155.0,286046997.7,N
1593932156.0,286046997.7,N
1593932175.8,286046995.4,N
1593932195.6,286046996.9,N
1593932215.5,286046996.8,N
1593932235.3,286046996.5,N
1593932255.1,286046997.7,N
1593932275.9,286046996.8,N
1593932295.7,286046997.2,N
1593932315.6,286046996.8,N
1593932335.4,286046998.9,N
1593932355.2,286046997.5,N
1593932375.1,286046994.9,N
1593932376.0,286046994.9,N
1593932395.8,286046995.6,N
